Location: *
(50.3440°N, 18.6237°E)
Time: 18:12:07
(UTC+00:00)

EO 1 Delta rocket - Pass Details

Date: 30 November 2020
Orbit: 698 x 1791 km, 95.4° (Epoch: 17 January)

Event Time Altitude Azimuth Distance (km) Brightness Sun altitude
Rises 17:00:22 0° 10° (N) 3,353 7.1 -20.7°
Reaches altitude 10° 17:02:31 10° 11° (N) 2,511 6.5 -21.0°
Maximum altitude 17:08:07 84° 101° (E) 1,021 4.5 -21.9°
Drops below altitude 10° 17:15:17 10° 190° (S) 3,179 7.4 -23.0°
Sets 17:18:16 0° 191° (S) 4,308 8.1 -23.5°
